Location: Unspecified
(0.0000°N, 0.0000°E)
Time: 12:48:15
(UTC+02:00)

ARIANE 5 R/B - Visible Passes

Search period start: 25 April 2018 00:00
Search period end: 05 May 2018 00:00
Orbit: 571 x 35555 km, 5.3° (Epoch: 24 April)

Date Brightness Start Highest point End Pass type
(mag) Time Alt. Az. Time Alt. Az. Time Alt. Az.
26 Apr 2.7 07:25:33 10° W 07:30:03 59° S 07:33:30 10° ESE visible
26 Apr 6.2 18:46:20 10° W 20:28:09 45° W 03:59:15 18° W visible
27 Apr 7.8 15:32:30 10° W 18:54:17 87° N 01:07:22 78° NW visible
28 Apr 6.3 12:30:03 10° WSW 20:35:36 69° ENE 22:15:29 30° E visible
29 Apr 11.7 22:00:45 10° W 22:30:31 11° W 23:06:50 10° W visible
30 Apr 2.8 06:30:10 42° WSW 06:31:43 70° S 06:35:02 10° ESE visible
30 Apr 8.2 17:42:17 10° W 19:28:15 59° W 03:05:21 33° W visible
01 May 7.6 14:33:24 10° W 19:42:45 86° N 00:13:26 73° ENE visible
02 May 5.8 11:32:06 10° WSW 19:36:01 55° E 21:21:30 13° E visible
03 May 11.5 20:13:16 10° W 21:33:22 23° W 00:14:51 10° W visible
04 May 4.3 05:35:07 35° ESE 05:35:07 35° ESE 05:37:00 10° E visible
